Hatteras, NC

1:53 PM EDT on October 19, 2019 (GMT -0400)
Mitchell

Weather History for KHSE - August, 2019

Change the Weather History Date:

Wednesday, August 28, 2019

  Actual Average Record
Temperature  
Mean Temperature 80 °F 78 °F  
Max Temperature 86 °F 83 °F 91 °F (1990)
Min Temperature 75 °F 72 °F 59 °F (1984)
Degree Days  
Heating Degree Days 0 0  
Month to date heating degree days 0 0  
Since 1 June heating degree days 0 3  
Since 1 July heating degree days 0 0  
Cooling Degree Days 16 13  
Month to date cooling degree days 476 381  
Year to date cooling degree days 1776 1269  
Since 1 June cooling degree days 1394 1126  
Growing Degree Days 30 (Base 50)    
Moisture  
Dew Point 74 °F    
Average Humidity 82    
Maximum Humidity 94    
Minimum Humidity 69    
Precipitation  
Precipitation 0.00 in 0.25 in 5.72 in (1962)
Month to date precipitation 7.03 6.19  
Year to date precipitation 38.75 36.45  
Snow  
Snow 0.00 in - - ()
Month to date snowfall 0.0  
Since 1 July snowfall 0.0  
Snow Depth 0.00 in    
Sea Level Pressure  
Sea Level Pressure 29.84 in    
Wind  
Wind Speed 5 mph ()    
Max Wind Speed 12 mph    
Max Gust Speed 18 mph    
Visibility 10.0 miles    
Events      
T = Trace of Precipitation, MM = Missing Value Source: Averaged Metar Reports

Daily Weather History Graph

Daily Weather History Graph

Search for Another Location

Airport or City:

Astronomy

Aug. 28, 2019 Rise Set
Actual Time 6:31 AM EDT 7:35 PM EDT
Civil Twilight 6:05 AM EDT 8:01 PM EDT
Nautical Twilight 5:34 AM EDT 8:32 PM EDT
Astronomical Twilight 5:02 AM EDT 9:04 PM EDT
Moon 4:08 AM EDT (8/28) 6:39 PM EDT (8/28)
Length of Visible Light 13h 55m
Length of Day
13h 03m
Waning Crescent, 5% of the Moon is Illuminated
Aug 28
Waning Crescent
Aug 30
New
Sep 5
First Quarter
Sep 14
Full
Sep 21
Last Quarter

Hourly Weather History & Observations

Time (EDT) Temp. Heat Index Dew Point Humidity Pressure Visibility Wind Dir Wind Speed Gust Speed Precip Events Conditions
12:51 AM 75.9 °F - 73.9 °F 94% 29.89 in 10.0 mi Variable 6.9 mph - N/A   Overcast
1:51 AM 77.0 °F - 73.9 °F 90% 29.88 in 10.0 mi Variable 5.8 mph - N/A   Overcast
2:51 AM 77.0 °F - 73.9 °F 90% 29.87 in 10.0 mi Variable 4.6 mph - N/A   Overcast
3:51 AM 75.9 °F - 73.0 °F 91% 29.85 in 10.0 mi Variable 5.8 mph - N/A   Overcast
4:51 AM 75.9 °F - 73.0 °F 91% 29.84 in 10.0 mi Variable 5.8 mph - N/A   Overcast
5:51 AM 75.9 °F - 73.0 °F 91% 29.84 in 10.0 mi Variable 6.9 mph - N/A   Overcast
6:51 AM 75.9 °F - 73.0 °F 91% 29.85 in 10.0 mi Variable 4.6 mph - N/A   Overcast
7:51 AM 77.0 °F - 73.0 °F 88% 29.84 in 10.0 mi Variable 6.9 mph - N/A   Overcast
8:32 AM 78.1 °F - 73.0 °F 84% 29.84 in 10.0 mi Variable 6.9 mph - N/A   Overcast
8:51 AM 79.0 °F - 73.0 °F 82% 29.84 in 10.0 mi Variable 5.8 mph - N/A   Overcast
9:51 AM 81.0 °F 85.8 °F 73.0 °F 77% 29.86 in 10.0 mi Variable 4.6 mph - N/A   Overcast
10:51 AM 82.0 °F 87.4 °F 73.0 °F 74% 29.85 in 10.0 mi Variable 3.5 mph - N/A   Mostly Cloudy
11:51 AM 82.9 °F 89.4 °F 73.9 °F 74% 29.85 in 10.0 mi North 6.9 mph - N/A   Mostly Cloudy
12:09 PM 82.9 °F 89.4 °F 73.9 °F 74% 29.84 in 10.0 mi North 9.2 mph - N/A   Scattered Clouds
12:51 PM 84.0 °F 91.2 °F 73.9 °F 72% 29.84 in 10.0 mi Variable 6.9 mph - N/A   Clear
1:51 PM 84.0 °F 91.2 °F 73.9 °F 72% 29.83 in 10.0 mi North 8.1 mph - N/A   Clear
2:51 PM 84.9 °F 92.1 °F 73.9 °F 69% 29.81 in 10.0 mi Variable 6.9 mph - N/A   Clear
3:51 PM 84.9 °F 92.1 °F 73.9 °F 69% 29.81 in 10.0 mi Variable 5.8 mph - N/A   Clear
4:51 PM 84.0 °F 91.9 °F 75.0 °F 74% 29.81 in 10.0 mi NNE 8.1 mph - N/A   Clear
5:51 PM 82.0 °F 88.6 °F 75.0 °F 79% 29.82 in 10.0 mi NNE 6.9 mph - N/A   Clear
6:51 PM 80.1 °F 84.5 °F 73.9 °F 81% 29.82 in 10.0 mi Variable 5.8 mph - N/A   Overcast
7:51 PM 79.0 °F - 73.9 °F 84% 29.82 in 10.0 mi Variable 6.9 mph - N/A   Partly Cloudy
8:51 PM 78.1 °F - 73.9 °F 87% 29.84 in 10.0 mi Variable 4.6 mph - N/A   Clear
9:51 PM 78.1 °F - 73.9 °F 87% 29.85 in 10.0 mi NNE 4.6 mph - N/A   Clear
10:51 PM 78.1 °F - 73.0 °F 84% 29.86 in 10.0 mi Variable 4.6 mph - N/A   Scattered Clouds
11:51 PM 79.0 °F - 73.0 °F 82% 29.87 in 10.0 mi NNW 3.5 mph - N/A   Mostly Cloudy